[keps] orb08255.amsat
Ray Hoad
r.hoad at att.net
Thu Sep 11 19:33:37 PDT 2008
SB KEPS @ AMSAT $ORB08255.O
Orbital Elements 08255.OSCAR
HR AMSAT ORBITAL ELEMENTS FOR OSCAR SATELLITES
FROM WA5QGD FORT WORTH,TX September 11, 2008
Send Subscribe/unsubscribe to KEPS at
http://www.amsat.org/mailman/listinfo/keps
BID: ORB08255.O
TO ALL RADIO AMATEURS BT
Satellite: AO-07
Catalog number: 07530
Epoch time: 08254.68654535
Element set: 274
Inclination: 101.4607 deg
RA of node: 283.3062 deg
Eccentricity: 0.0012197
Arg of perigee: 095.2306 deg
Mean anomaly: 265.0152 deg
Mean motion: 12.53574162 rev/day
Decay rate: -2.7e-07 rev/day^2
Epoch rev: 54769
Checksum: 293
Satellite: AO-10
Catalog number: 14129
Epoch time: 08254.17561490
Element set: 0558
Inclination: 026.0290 deg
RA of node: 196.3494 deg
Eccentricity: 0.5965835
Arg of perigee: 155.8133 deg
Mean anomaly: 250.8737 deg
Mean motion: 02.05867831 rev/day
Decay rate: -1.50e-06 rev/day^2
Epoch rev: 18985
Checksum: 330
Satellite: UO-11
Catalog number: 14781
Epoch time: 08255.87984014
Element set: 765
Inclination: 098.1486 deg
RA of node: 291.1799 deg
Eccentricity: 0.0009535
Arg of perigee: 148.2877 deg
Mean anomaly: 211.8930 deg
Mean motion: 14.79663944 rev/day
Decay rate: 3.29e-06 rev/day^2
Epoch rev: 31667
Checksum: 359
Satellite: RS-15
Catalog number: 23439
Epoch time: 08255.75424860
Element set: 144
Inclination: 064.8193 deg
RA of node: 355.0621 deg
Eccentricity: 0.0146497
Arg of perigee: 106.1293 deg
Mean anomaly: 255.5811 deg
Mean motion: 11.27552903 rev/day
Decay rate: -3.9e-07 rev/day^2
Epoch rev: 56472
Checksum: 308
Satellite: FO-29
Catalog number: 24278
Epoch time: 08254.90667644
Element set: 0882
Inclination: 098.5779 deg
RA of node: 159.9515 deg
Eccentricity: 0.0350996
Arg of perigee: 353.8131 deg
Mean anomaly: 005.8732 deg
Mean motion: 13.52940146 rev/day
Decay rate: 1.1e-07 rev/day^2
Epoch rev: 59598
Checksum: 358
Satellite: SO-33
Catalog number: 25509
Epoch time: 08254.88625973
Element set: 0278
Inclination: 031.4299 deg
RA of node: 191.7777 deg
Eccentricity: 0.0354669
Arg of perigee: 056.4785 deg
Mean anomaly: 306.9195 deg
Mean motion: 14.28224989 rev/day
Decay rate: 1.92e-06 rev/day^2
Epoch rev: 51587
Checksum: 376
Satellite: AO-40
Catalog number: 26609
Epoch time: 08253.19399783
Element set: 116
Inclination: 007.7644 deg
RA of node: 061.8449 deg
Eccentricity: 0.7932190
Arg of perigee: 120.9689 deg
Mean anomaly: 338.5760 deg
Mean motion: 01.25588373 rev/day
Decay rate: -4.09e-06 rev/day^2
Epoch rev: 3609
Checksum: 344
Satellite: VO-52
Catalog number: 28650
Epoch time: 08255.79131998
Element set: 28
Inclination: 097.7813 deg
RA of node: 319.9904 deg
Eccentricity: 0.0026365
Arg of perigee: 216.6640 deg
Mean anomaly: 143.2754 deg
Mean motion: 14.81495785 rev/day
Decay rate: -2.26e-06 rev/day^2
Epoch rev: 18142
Checksum: 337
Satellite: PO-63
Catalog number: 29712
Epoch time: 08255.68268116
Element set: 787
Inclination: 097.8679 deg
RA of node: 312.2153 deg
Eccentricity: 0.0015381
Arg of perigee: 099.7182 deg
Mean anomaly: 260.5763 deg
Mean motion: 14.80261724 rev/day
Decay rate: 4.84e-06 rev/day^2
Epoch rev: 9026
Checksum: 334
/EX
SB KEPS @ AMSAT $ORB08255.D
Orbital Elements 08255.MICROS
HR AMSAT ORBITAL ELEMENTS FOR THE MICROSATS
FROM WA5QGD FORT WORTH,TX September 11, 2008
Send Subscribe/unsubscribe to KEPS at
http://www.amsat.org/mailman/listinfo/keps
BID: ORB08255.D
TO ALL RADIO AMATEURS BT
Satellite: AO-16
Catalog number: 20439
Epoch time: 08254.88657523
Element set: 0416
Inclination: 098.2402 deg
RA of node: 230.6076 deg
Eccentricity: 0.0010114
Arg of perigee: 284.9413 deg
Mean anomaly: 075.0657 deg
Mean motion: 14.31802163 rev/day
Decay rate: -.00000000 rev/day^2
Epoch rev: 97318
Checksum: 277
Satellite: LO-19
Catalog number: 20442
Epoch time: 08255.89787235
Element set: 338
Inclination: 098.2094 deg
RA of node: 239.8373 deg
Eccentricity: 0.0010992
Arg of perigee: 278.3947 deg
Mean anomaly: 081.5972 deg
Mean motion: 14.32040264 rev/day
Decay rate: 2.5e-07 rev/day^2
Epoch rev: 97348
Checksum: 340
Satellite: AO-27
Catalog number: 22825
Epoch time: 08255.86966621
Element set: 60
Inclination: 098.3935 deg
RA of node: 212.6793 deg
Eccentricity: 0.0008743
Arg of perigee: 011.3443 deg
Mean anomaly: 348.7934 deg
Mean motion: 14.29246591 rev/day
Decay rate: -4.0e-08 rev/day^2
Epoch rev: 78015
Checksum: 322
Satellite: IO-26
Catalog number: 22826
Epoch time: 08254.57871818
Element set: 0770
Inclination: 098.3860 deg
RA of node: 212.3056 deg
Eccentricity: 0.0009301
Arg of perigee: 010.9962 deg
Mean anomaly: 349.1429 deg
Mean motion: 14.29495986 rev/day
Decay rate: 1.5e-07 rev/day^2
Epoch rev: 78006
Checksum: 326
Satellite: GO-32
Catalog number: 25397
Epoch time: 08255.79904811
Element set: 694
Inclination: 098.3587 deg
RA of node: 286.6581 deg
Eccentricity: 0.0001386
Arg of perigee: 029.0569 deg
Mean anomaly: 331.0678 deg
Mean motion: 14.23146928 rev/day
Decay rate: -1.92e-06 rev/day^2
Epoch rev: 52853
Checksum: 348
Satellite: NO-44
Catalog number: 26931
Epoch time: 08255.83111072
Element set: 974
Inclination: 067.0526 deg
RA of node: 061.4483 deg
Eccentricity: 0.0007194
Arg of perigee: 266.5116 deg
Mean anomaly: 093.5143 deg
Mean motion: 14.29533131 rev/day
Decay rate: 1.37e-06 rev/day^2
Epoch rev: 36279
Checksum: 297
Satellite: SO-50
Catalog number: 27607
Epoch time: 08254.91726703
Element set: 0697
Inclination: 064.5590 deg
RA of node: 153.2733 deg
Eccentricity: 0.0086242
Arg of perigee: 262.8503 deg
Mean anomaly: 096.2771 deg
Mean motion: 14.71377919 rev/day
Decay rate: -1.70e-06 rev/day^2
Epoch rev: 30758
Checksum: 327
Satellite: CO-55
Catalog number: 27844
Epoch time: 08254.87195301
Element set: 0394
Inclination: 098.7181 deg
RA of node: 261.9568 deg
Eccentricity: 0.0009033
Arg of perigee: 226.3589 deg
Mean anomaly: 133.6826 deg
Mean motion: 14.20595126 rev/day
Decay rate: -1.0e-08 rev/day^2
Epoch rev: 26960
Checksum: 326
Satellite: CO-57
Catalog number: 27848
Epoch time: 08254.59981435
Element set: 0345
Inclination: 098.7185 deg
RA of node: 260.7698 deg
Eccentricity: 0.0008995
Arg of perigee: 233.0368 deg
Mean anomaly: 126.9981 deg
Mean motion: 14.20403400 rev/day
Decay rate: 6.0e-08 rev/day^2
Epoch rev: 26953
Checksum: 345
Satellite: AO-51
Catalog number: 28375
Epoch time: 08255.59004868
Element set: 195
Inclination: 098.0681 deg
RA of node: 275.2891 deg
Eccentricity: 0.0082976
Arg of perigee: 251.0939 deg
Mean anomaly: 108.1243 deg
Mean motion: 14.40617684 rev/day
Decay rate: -4.0e-08 rev/day^2
Epoch rev: 22084
Checksum: 326
Satellite: CO-56
Catalog number: 28941
Epoch time: 08255.47511987
Element set: 367
Inclination: 098.1150 deg
RA of node: 018.2712 deg
Eccentricity: 0.0153924
Arg of perigee: 086.8517 deg
Mean anomaly: 275.0324 deg
Mean motion: 15.61036871 rev/day
Decay rate: 2.7991e-04 rev/day^2
Epoch rev: 14348
Checksum: 334
Satellite: CP3
Catalog number: 31128
Epoch time: 08255.68334645
Element set: 429
Inclination: 098.0335 deg
RA of node: 315.4317 deg
Eccentricity: 0.0104053
Arg of perigee: 067.7055 deg
Mean anomaly: 293.5138 deg
Mean motion: 14.51973487 rev/day
Decay rate: -4.6e-07 rev/day^2
Epoch rev: 7448
Checksum: 311
Satellite: CP4
Catalog number: 31132
Epoch time: 08254.97697256
Element set: 0414
Inclination: 098.0334 deg
RA of node: 317.3308 deg
Eccentricity: 0.0086869
Arg of perigee: 062.5391 deg
Mean anomaly: 298.4575 deg
Mean motion: 14.55140159 rev/day
Decay rate: -1.30e-06 rev/day^2
Epoch rev: 07442
Checksum: 314
Satellite: CO-65
Catalog number: 32785
Epoch time: 08254.42969941
Element set: 0156
Inclination: 097.9861 deg
RA of node: 314.1083 deg
Eccentricity: 0.0014070
Arg of perigee: 216.3783 deg
Mean anomaly: 143.6481 deg
Mean motion: 14.81391049 rev/day
Decay rate: 2.55e-06 rev/day^2
Epoch rev: 02002
Checksum: 306
/EX
SB KEPS @ AMSAT $ORB08255.W
Orbital Elements 08255.WEATHER
HR AMSAT ORBITAL ELEMENTS FOR WEATHER SATELLITES
FROM WA5QGD FORT WORTH,TX September 11, 2008
Send Subscribe/unsubscribe to KEPS at
http://www.amsat.org/mailman/listinfo/keps
BID: ORB08255.W
TO ALL RADIO AMATEURS BT
Satellite: NOAA-10
Catalog number: 16969
Epoch time: 08254.67529674
Element set: 0281
Inclination: 098.7200 deg
RA of node: 276.4624 deg
Eccentricity: 0.0011641
Arg of perigee: 294.8848 deg
Mean anomaly: 065.1137 deg
Mean motion: 14.27367562 rev/day
Decay rate: 9.0e-08 rev/day^2
Epoch rev: 14363
Checksum: 325
Satellite: NOAA-11
Catalog number: 19531
Epoch time: 08254.87691512
Element set: 0314
Inclination: 098.7962 deg
RA of node: 343.0008 deg
Eccentricity: 0.0011371
Arg of perigee: 180.7090 deg
Mean anomaly: 179.4089 deg
Mean motion: 14.14877223 rev/day
Decay rate: 1.91e-06 rev/day^2
Epoch rev: 03002
Checksum: 287
Satellite: NOAA-12
Catalog number: 21263
Epoch time: 08254.97225860
Element set: 0856
Inclination: 098.7713 deg
RA of node: 256.9319 deg
Eccentricity: 0.0011484
Arg of perigee: 235.3833 deg
Mean anomaly: 124.6264 deg
Mean motion: 14.25545290 rev/day
Decay rate: 4.0e-08 rev/day^2
Epoch rev: 90061
Checksum: 303
Satellite: MET-3/5
Catalog number: 21655
Epoch time: 08254.96250834
Element set: 0515
Inclination: 082.5513 deg
RA of node: 043.7681 deg
Eccentricity: 0.0013716
Arg of perigee: 154.0710 deg
Mean anomaly: 206.1101 deg
Mean motion: 13.17016842 rev/day
Decay rate: 5.1e-07 rev/day^2
Epoch rev: 82087
Checksum: 269
Satellite: MET-2/21
Catalog number: 22782
Epoch time: 08255.48041534
Element set: 247
Inclination: 082.5463 deg
RA of node: 043.1054 deg
Eccentricity: 0.0023806
Arg of perigee: 050.5646 deg
Mean anomaly: 309.7608 deg
Mean motion: 13.83630746 rev/day
Decay rate: 7.1e-07 rev/day^2
Epoch rev: 75906
Checksum: 298
Satellite: OKEAN-4
Catalog number: 23317
Epoch time: 08254.90356706
Element set: 690
Inclination: 082.5371 deg
RA of node: 235.0777 deg
Eccentricity: 0.0021438
Arg of perigee: 200.6557 deg
Mean anomaly: 159.3814 deg
Mean motion: 14.82633339 rev/day
Decay rate: 8.6e-07 rev/day^2
Epoch rev: 75098
Checksum: 317
